CW4629 Weather Reports


time (UTC)temp
F
wind
direction
speed
knots
gust
knots
rain 1hr
in
rain 24hr
in
rain mn
in
humidity
%
barometer
mb
20260510010446 92 356 3.5 7.8 0.00 0.00 0.00 11 1011.7
20260510004546 93 359 5.2 7.8 0.00 0.00 0.00 10 1011.4
20260510003530 95 349 3.5 6.1 0.00 0.00 0.00 10 1011.6
20260510002531 94 353 0.9 2.6 0.00 0.00 0.00 10 1011.6
20260510001630 93 22 4.3 7.8 0.00 0.00 0.00 11 1011.7
20260510000649 93 26 3.5 6.1 0.00 0.00 0.00 11 1011.6
20260509231930 96 4 2.6 6.1 0.00 0.00 0.00 10 1011.7
20260509231847 96 11 6.1 10.4 0.00 0.00 0.00 9 1011.7
20260509230846 94 359 5.2 9.6 0.00 0.00 0.00 9 1011.7
20260509225830 94 284 3.5 5.2 0.00 0.00 0.00 10 1011.9
20260509224831 94 207 3.5 6.1 0.00 0.00 0.00 9 1012.1
20260509223846 95 315 4.3 6.1 0.00 0.00 0.00 10 1012.0
20260509222931 95 354 4.3 9.6 0.00 0.00 0.00 9 1012.2
20260509220948 94 337 1.7 4.3 0.00 0.00 0.00 10 1012.5
20260509220032 93 346 5.2 7.8 0.00 0.00 0.00 10 1012.8
20260509214047 93 288 5.2 7.0 0.00 0.00 0.00 11 1013.0
20260509213131 93 332 7.0 11.3 0.00 0.00 0.00 11 1013.3
20260509212129 93 314 6.1 9.6 0.00 0.00 0.00 11 1013.3
20260509211131 93 301 5.2 8.7 0.00 0.00 0.00 11 1013.3
20260509210146 92 265 7.0 12.2 0.00 0.00 0.00 11 1013.6
20260509205229 92 299 7.8 11.3 0.00 0.00 0.00 11 1013.7
20260509203247 92 303 2.6 5.2 0.00 0.00 0.00 11 1013.8
20260509202230 92 293 9.6 15.6 0.00 0.00 0.00 11 1013.8
20260509195348 94 291 7.8 11.3 0.00 0.00 0.00 11 1014.3
20260509195246 94 291 3.5 8.7 0.00 0.00 0.00 11 1014.2
20260509194329 94 157 0.0 1.7 0.00 0.00 0.00 11 1014.3
20260509193329 94 209 3.5 5.2 0.00 0.00 0.00 12 1014.5
20260509192329 92 270 0.0 0.9 0.00 0.00 0.00 12 1014.7
20260509190246 93 192 0.0 5.2 0.00 0.00 0.00 12 1015.0
20260509185329 91 172 2.6 4.3 0.00 0.00 0.00 12 1015.1
20260509184346 90 252 2.6 3.5 0.00 0.00 0.00 12 1015.3
20260509183346 90 180 0.9 2.6 0.00 0.00 0.00 11 1015.5
20260509182330 89 202 2.6 5.2 0.00 0.00 0.00 13 1015.6
20260509181331 88 156 1.7 3.5 0.00 0.00 0.00 13 1015.7
20260509180346 88 116 2.6 4.3 0.00 0.00 0.00 13 1015.7
20260509174329 86 162 1.7 3.5 0.00 0.00 0.00 14 1016.3
20260509172347 85 156 2.6 5.2 0.00 0.00 0.00 14 1016.2
20260509172229 85 191 3.5 5.2 0.00 0.00 0.00 14 1016.2
20260509171247 85 136 2.6 4.3 0.00 0.00 0.00 15 1016.3
20260509170346 84 189 3.5 5.2 0.00 0.00 0.00 15 1016.2
20260509165348 83 116 2.6 4.3 0.00 0.00 0.00 16 1016.4
20260509164330 82 179 0.0 2.6 0.00 0.00 0.00 15 1016.3
20260509163330 83 122 3.5 6.1 0.00 0.00 0.00 15 1016.3
20260509162329 82 157 0.0 0.9 0.00 0.00 0.00 14 1016.5
20260509161345 82 135 0.0 0.9 0.00 0.00 0.00 16 1016.4
20260509160329 81 202 0.0 0.9 0.00 0.00 0.00 15 1016.4
20260509155331 79 180 0.9 1.7 0.00 0.00 0.00 16 1016.5
20260509154345 78 71 0.0 1.7 0.00 0.00 0.00 16 1016.5
20260509153346 77 157 0.0 0.0 0.00 0.00 0.00 18 1016.6
20260509152329 77 180 0.9 2.6 0.00 0.00 0.00 19 1016.6
20260509151347 77 292 0.0 0.0 0.00 0.00 0.00 19 1016.5
20260509150329 76 292 0.0 0.0 0.00 0.00 0.00 20 1016.6
20260509145346 73 292 0.0 0.0 0.00 0.00 0.00 21 1016.6
20260509142347 68 202 0.9 2.6 0.00 0.00 0.00 26 1016.5
20260509140446 64 202 0.0 0.0 0.00 0.00 0.00 31 1016.5
20260509135530 63 202 0.9 1.7 0.00 0.00 0.00 34 1016.4
20260509134628 62 337 0.9 0.9 0.00 0.00 0.00 33 1016.3
20260509133728 61 157 0.0 0.0 0.00 0.00 0.00 33 1016.2
20260509132746 59 157 0.0 0.0 0.00 0.00 0.00 34 1016.0
20260509131745 59 135 0.0 0.0 0.00 0.00 0.00 34 1016.1
20260509125828 57 22 1.7 2.6 0.00 0.00 0.00 33 1015.7
20260509124828 58 337 0.0 0.0 0.00 0.00 0.00 34 1015.6
20260509123844 58 337 0.0 0.0 0.00 0.00 0.00 31 1015.6
20260509122927 57 337 0.0 0.0 0.00 0.00 0.00 35 1015.4
20260509121944 57 337 0.0 0.0 0.00 0.00 0.00 35 1015.3
20260509121030 58 337 0.0 0.0 0.00 0.00 0.00 32 1015.1
20260509120029 58 337 0.0 0.0 0.00 0.00 0.00 33 1015.0
20260509115029 58 337 0.0 0.0 0.00 0.00 0.00 31 1014.9
20260509114047 61 45 0.0 0.0 0.00 0.00 0.00 27 1014.7
20260509113130 61 67 1.7 2.6 0.00 0.00 0.00 26 1014.7
20260509112145 60 202 0.0 0.0 0.00 0.00 0.00 28 1014.7
20260509111128 61 315 0.0 0.0 0.00 0.00 0.00 28 1014.6
20260509110129 61 315 0.0 0.0 0.00 0.00 0.00 27 1014.5
20260509105228 61 337 0.9 1.7 0.00 0.00 0.00 27 1014.3
20260509104229 63 360 0.0 0.0 0.00 0.00 0.00 25 1014.4
20260509103246 64 360 0.0 0.0 0.00 0.00 0.00 23 1014.2
20260509102228 65 360 0.0 0.9 0.00 0.00 0.00 22 1014.2
20260509101229 65 320 1.7 3.5 0.00 0.00 0.00 22 1014.0
20260509095329 66 346 3.5 5.2 0.00 0.00 0.00 20 1013.9
20260509094345 67 353 4.3 6.1 0.00 0.00 0.00 20 1013.9
20260509093429 66 326 3.5 4.3 0.00 0.00 0.00 21 1013.9
20260509092445 66 354 4.3 7.0 0.00 0.00 0.00 22 1013.9
20260509091429 67 345 2.6 4.3 0.00 0.00 0.00 21 1013.8
20260509090429 67 22 0.0 0.9 0.00 0.00 0.00 21 1013.7
20260509085428 67 22 1.7 2.6 0.00 0.00 0.00 21 1013.5
20260509084429 68 351 2.6 3.5 0.00 0.00 0.00 20 1013.5
20260509083428 69 360 1.7 2.6 0.00 0.00 0.00 19 1013.5
20260509082446 69 20 2.6 4.3 0.00 0.00 0.00 19 1013.5
20260509081527 69 346 2.6 3.5 0.00 0.00 0.00 19 1013.5
20260509081428 69 337 1.7 2.6 0.00 0.00 0.00 19 1013.6
20260509075430 70 328 0.9 2.6 0.00 0.00 0.00 19 1013.5
20260509074430 71 326 0.9 1.7 0.00 0.00 0.00 18 1013.3
20260509073428 72 14 1.7 3.5 0.00 0.00 0.00 17 1013.3
20260509072429 72 20 2.6 3.5 0.00 0.00 0.00 17 1013.2
20260509070429 74 323 0.9 1.7 0.00 0.00 0.00 16 1013.1
20260509065429 74 342 2.6 3.5 0.00 0.00 0.00 16 1012.9
20260509064527 75 22 1.7 3.5 0.00 0.00 0.00 16 1013.0
20260509063546 75 292 2.6 3.5 0.00 0.00 0.00 16 1012.9
20260509062627 76 303 5.2 7.0 0.00 0.00 0.00 15 1012.8
20260509061646 78 297 4.3 6.1 0.00 0.00 0.00 14 1012.9
20260509060627 76 301 7.0 9.6 0.00 0.00 0.00 16 1012.9
20260509060527 76 306 6.1 9.6 0.00 0.00 0.00 17 1012.7
20260509055534 76 339 2.6 5.2 0.00 0.00 0.00 18 1012.7
20260509054535 77 336 2.6 3.5 0.00 0.00 0.00 16 1012.7
20260509053548 76 333 2.6 3.5 0.00 0.00 0.00 17 1012.5
20260509052631 76 225 0.0 0.0 0.00 0.00 0.00 18 1012.6
20260509051635 76 315 0.0 0.0 0.00 0.00 0.00 19 1012.8
20260509050648 78 315 0.0 0.0 0.00 0.00 0.00 18 1012.6
20260509044749 77 25 2.6 4.3 0.00 0.00 0.00 18 1012.4
20260509043834 78 202 0.0 0.9 0.00 0.00 0.00 17 1012.3
20260509042834 79 360 0.0 0.0 0.00 0.00 0.00 16 1012.2
20260509041834 81 360 0.0 0.9 0.00 0.00 0.00 15 1012.0
20260509035933 84 23 1.7 3.5 0.00 0.00 0.00 12 1012.0
20260509033933 87 249 3.5 5.2 0.00 0.00 0.00 11 1011.7
20260509032034 87 230 3.5 5.2 0.00 0.00 0.00 10 1011.5
20260509031131 87 234 4.3 7.0 0.00 0.00 0.00 10 1011.3
20260509031048 87 235 6.1 8.7 0.00 0.00 0.00 10 1011.3
20260509030049 87 233 4.3 7.0 0.00 0.00 0.00 10 1011.3
20260509025133 88 217 4.3 6.1 0.00 0.00 0.00 10 1011.2
20260509022331 90 214 5.2 7.8 0.00 0.00 0.00 9 1010.7
20260509021332 91 222 6.1 9.6 0.00 0.00 0.00 9 1010.7
20260509020430 92 224 5.2 7.0 0.00 0.00 0.00 8 1010.7
20260509015433 93 237 3.5 7.0 0.00 0.00 0.00 6 1010.3
20260509014448 93 259 3.5 7.0 0.00 0.00 0.00 5 1010.4
20260509013431 93 247 4.3 6.1 0.00 0.00 0.00 6 1010.4
20260509012448 94 260 6.1 11.3 0.00 0.00 0.00 6 1010.4
20260509011533 94 254 7.0 10.4 0.00 0.00 0.00 7 1010.4